SAS903 ESSA-KEWR

Flight info

Callsign SAS903
Flight time N/A
Altitude 36000
Route KOGAV DCT EGAGO DCT NOMGA DCT 65N000E/M082F360 66N010W 66N020W 65N030W/M082F380 64N040W 62N050W DCT SAVRY/N0478F380 N922A LAKES DCT TEALS DCT ULDON DCT MOFAT/N0480F400 DCT ALB DCT HELON DCT FLOSI FLOSI4
Aircraft A333/H-SDE1E3FGHIJ3J4J5M1P2RVWXY/LB1D1

Departure

Time 2026-05-07 08:57
Airport Stockholm-Arlanda Airport (ESSA)

Arrival

Time N/A
Airport Newark Liberty International Airport (KEWR)
Time Latitude Longitude Altitude Speed Heading
2026-05-07 08:15 59.65390 17.93795 115 ft 0 kts 256°
2026-05-07 08:42 59.65394 17.93827 111 ft 4 kts 256°
2026-05-07 08:42 59.65401 17.93879 111 ft 4 kts 257°
2026-05-07 08:42 59.65406 17.93931 112 ft 4 kts 262°
2026-05-07 08:43 59.65407 17.93983 113 ft 4 kts 285°
2026-05-07 08:43 59.65404 17.94004 113 ft 0 kts 301°
2026-05-07 08:46 59.65405 17.94001 113 ft 3 kts 301°
2026-05-07 08:46 59.65432 17.93950 113 ft 6 kts 327°
2026-05-07 08:46 59.65475 17.93917 115 ft 6 kts 342°
2026-05-07 08:46 59.65532 17.93887 115 ft 10 kts 345°
2026-05-07 08:47 59.65586 17.93820 113 ft 9 kts 297°
2026-05-07 08:47 59.65584 17.93708 114 ft 8 kts 256°
2026-05-07 08:47 59.65567 17.93573 115 ft 12 kts 256°
2026-05-07 08:47 59.65545 17.93402 111 ft 13 kts 256°
2026-05-07 08:48 59.65523 17.93228 115 ft 13 kts 256°
2026-05-07 08:48 59.65500 17.93050 112 ft 14 kts 256°
2026-05-07 08:48 59.65468 17.92866 113 ft 14 kts 250°
2026-05-07 08:48 59.65434 17.92706 112 ft 11 kts 255°
2026-05-07 08:49 59.65470 17.92580 109 ft 13 kts 329°
2026-05-07 08:49 59.65563 17.92514 108 ft 15 kts 344°
2026-05-07 08:49 59.65668 17.92460 107 ft 16 kts 346°
2026-05-07 08:49 59.65770 17.92431 109 ft 14 kts
2026-05-07 08:50 59.65865 17.92458 110 ft 15 kts 10°
2026-05-07 08:50 59.65975 17.92498 109 ft 17 kts
2026-05-07 08:50 59.66099 17.92543 113 ft 19 kts 10°
2026-05-07 08:50 59.66227 17.92590 116 ft 18 kts 11°
2026-05-07 08:51 59.66338 17.92631 119 ft 15 kts 11°
2026-05-07 08:51 59.66428 17.92656 121 ft 12 kts 360°
2026-05-07 08:51 59.66502 17.92627 123 ft 10 kts 342°
2026-05-07 08:51 59.66529 17.92610 124 ft 0 kts 340°
2026-05-07 08:55 59.66538 17.92603 128 ft 6 kts 341°
2026-05-07 08:55 59.66595 17.92557 123 ft 9 kts 328°
2026-05-07 08:56 59.66623 17.92459 125 ft 8 kts 280°
2026-05-07 08:56 59.66607 17.92371 123 ft 7 kts 209°
2026-05-07 08:56 59.66572 17.92352 124 ft 0 kts 191°
2026-05-07 08:56 59.66563 17.92349 124 ft 7 kts 191°
2026-05-07 08:57 59.66348 17.92270 119 ft 60 kts 190°
2026-05-07 08:57 59.65749 17.92054 112 ft 115 kts 190°
2026-05-07 08:57 59.64794 17.91712 138 ft 160 kts 191°
2026-05-07 08:57 59.63686 17.91345 765 ft 158 kts 189°
2026-05-07 08:58 59.62618 17.91023 1437 ft 161 kts 189°
2026-05-07 08:58 59.61508 17.90291 1748 ft 177 kts 206°
2026-05-07 08:58 59.60548 17.88619 2083 ft 194 kts 233°
2026-05-07 08:58 59.59824 17.86252 2435 ft 209 kts 241°
2026-05-07 08:59 59.59160 17.83568 2724 ft 227 kts 248°
2026-05-07 08:59 59.58837 17.80392 3005 ft 248 kts 271°
2026-05-07 08:59 59.59312 17.77085 3554 ft 255 kts 296°
2026-05-07 08:59 59.60300 17.74156 4182 ft 259 kts 308°
2026-05-07 09:00 59.61486 17.71460 4840 ft 261 kts 311°
2026-05-07 09:00 59.62724 17.68816 5526 ft 265 kts 311°
2026-05-07 09:00 59.64003 17.66068 5948 ft 278 kts 310°
2026-05-07 09:00 59.65308 17.63179 6518 ft 285 kts 310°
2026-05-07 09:01 59.66614 17.60192 7169 ft 288 kts 309°
2026-05-07 09:01 59.67909 17.57151 7886 ft 290 kts 308°
2026-05-07 09:01 59.69204 17.54070 8619 ft 291 kts 308°
2026-05-07 09:01 59.70496 17.50971 9370 ft 293 kts 308°
2026-05-07 09:02 59.71791 17.47838 10055 ft 294 kts 307°
2026-05-07 09:02 59.73092 17.44690 10716 ft 296 kts 307°
2026-05-07 09:02 59.74409 17.41501 11202 ft 304 kts 307°
2026-05-07 09:02 59.75780 17.38176 11475 ft 319 kts 307°
2026-05-07 09:03 59.77214 17.34696 11721 ft 333 kts 307°
2026-05-07 09:03 59.78691 17.31115 12038 ft 345 kts 307°
2026-05-07 09:03 59.80243 17.27356 12567 ft 349 kts 306°
2026-05-07 09:03 59.81787 17.23617 13215 ft 351 kts 306°
2026-05-07 09:04 59.83338 17.19858 13879 ft 352 kts 306°
2026-05-07 09:04 59.84893 17.16079 14414 ft 354 kts 306°
2026-05-07 09:04 59.86438 17.12313 14920 ft 358 kts 306°
2026-05-07 09:04 59.88016 17.08463 15398 ft 361 kts 306°
2026-05-07 09:05 59.89606 17.04574 15916 ft 363 kts 305°
2026-05-07 09:05 59.91204 17.00656 16430 ft 366 kts 305°
2026-05-07 09:05 59.92815 16.96701 16927 ft 368 kts 305°
2026-05-07 09:05 59.94432 16.92721 17432 ft 371 kts 305°
2026-05-07 09:06 59.96062 16.88706 17926 ft 374 kts 304°
2026-05-07 09:06 59.97702 16.84659 18465 ft 375 kts 304°
2026-05-07 09:06 59.99343 16.80606 18917 ft 376 kts 304°
2026-05-07 09:06 60.00992 16.76524 19371 ft 378 kts 304°
2026-05-07 09:07 60.02657 16.72452 19857 ft 380 kts 306°
2026-05-07 09:07 60.04517 16.68620 20183 ft 384 kts 308°
2026-05-07 09:07 60.06265 16.64613 20618 ft 382 kts 304°
2026-05-07 09:07 60.07888 16.60391 21044 ft 382 kts 302°
2026-05-07 09:08 60.09471 16.56097 21465 ft 384 kts 301°
2026-05-07 09:08 60.11064 16.51793 21869 ft 386 kts 302°
2026-05-07 09:08 60.12689 16.47491 22274 ft 388 kts 302°
2026-05-07 09:08 60.14345 16.43203 22685 ft 390 kts 303°
2026-05-07 09:09 60.16028 16.38910 23085 ft 392 kts 303°
2026-05-07 09:09 60.17727 16.34614 23468 ft 394 kts 303°
2026-05-07 09:09 60.19438 16.30300 23823 ft 396 kts 303°
2026-05-07 09:09 60.21158 16.25962 24117 ft 398 kts 303°
2026-05-07 09:10 60.22882 16.21605 24453 ft 399 kts 303°
2026-05-07 09:10 60.24615 16.17214 24864 ft 399 kts 303°
2026-05-07 09:10 60.26321 16.12878 25142 ft 401 kts 303°
2026-05-07 09:10 60.28077 16.08400 25428 ft 403 kts 303°
2026-05-07 09:11 60.29796 16.04007 25737 ft 405 kts 303°
2026-05-07 09:11 60.31545 15.99529 26038 ft 407 kts 303°
2026-05-07 09:11 60.33300 15.95027 26340 ft 409 kts 303°
2026-05-07 09:11 60.35062 15.90497 26636 ft 411 kts 302°
2026-05-07 09:12 60.36832 15.85939 26931 ft 413 kts 302°
2026-05-07 09:12 60.38606 15.81363 27216 ft 415 kts 302°
2026-05-07 09:12 60.40390 15.76752 27556 ft 417 kts 302°
2026-05-07 09:12 60.42181 15.72114 27812 ft 419 kts 302°
2026-05-07 09:13 60.43979 15.67445 28085 ft 422 kts 302°
2026-05-07 09:13 60.45781 15.62760 28448 ft 422 kts 302°
2026-05-07 09:13 60.47610 15.57997 28744 ft 423 kts 302°
2026-05-07 09:13 60.49394 15.53338 28978 ft 425 kts 302°
2026-05-07 09:14 60.51210 15.48583 29216 ft 427 kts 302°
2026-05-07 09:14 60.53030 15.43813 29590 ft 427 kts 302°
2026-05-07 09:14 60.54846 15.39048 29992 ft 426 kts 302°
2026-05-07 09:14 60.56655 15.34288 30308 ft 425 kts 302°
2026-05-07 09:15 60.58463 15.29520 30563 ft 426 kts 302°
2026-05-07 09:15 60.60273 15.24734 30793 ft 427 kts 302°
2026-05-07 09:15 60.62083 15.19938 31040 ft 428 kts 302°
2026-05-07 09:15 60.63897 15.15122 31276 ft 429 kts 302°
2026-05-07 09:16 60.65712 15.10292 31550 ft 429 kts 302°
2026-05-07 09:16 60.67527 15.05456 31838 ft 429 kts 302°
2026-05-07 09:16 60.69337 15.00624 32102 ft 429 kts 303°
2026-05-07 09:16 60.71147 14.95778 32323 ft 430 kts 302°
2026-05-07 09:17 60.72958 14.90918 32533 ft 430 kts 303°
2026-05-07 09:17 60.74771 14.86045 32796 ft 430 kts 303°
2026-05-07 09:17 60.76582 14.81166 33029 ft 431 kts 303°
2026-05-07 09:17 60.78391 14.76281 33253 ft 431 kts 303°
2026-05-07 09:18 60.80202 14.71382 33467 ft 432 kts 303°
2026-05-07 09:18 60.82013 14.66474 33669 ft 432 kts 303°
2026-05-07 09:18 60.83826 14.61547 33893 ft 433 kts 303°
2026-05-07 09:18 60.85639 14.56612 34089 ft 433 kts 303°
2026-05-07 09:19 60.87447 14.51680 34282 ft 433 kts 303°
2026-05-07 09:19 60.89257 14.46732 34493 ft 432 kts 303°
2026-05-07 09:19 60.91057 14.41799 34663 ft 432 kts 303°
2026-05-07 09:19 60.92839 14.36905 34789 ft 433 kts 303°
2026-05-07 09:20 60.94644 14.31938 34930 ft 434 kts 303°
2026-05-07 09:20 60.96452 14.26951 35070 ft 435 kts 303°
2026-05-07 09:20 60.98260 14.21954 35219 ft 435 kts 303°
2026-05-07 09:20 61.00071 14.16938 35345 ft 436 kts 303°
2026-05-07 09:21 61.01879 14.11919 35494 ft 436 kts 302°
2026-05-07 09:21 61.03688 14.06886 35639 ft 437 kts 302°
2026-05-07 09:21 61.05499 14.01839 35777 ft 438 kts 302°
2026-05-07 09:21 61.07309 13.96783 35906 ft 438 kts 302°
2026-05-07 09:22 61.09122 13.91707 36036 ft 439 kts 303°
2026-05-07 09:22 61.10937 13.86614 36064 ft 441 kts 303°
2026-05-07 09:22 61.14570 13.76386 36064 ft 441 kts 303°
2026-05-07 09:23 61.18194 13.66141 36064 ft 441 kts 302°
2026-05-07 09:23 61.21807 13.55876 36064 ft 440 kts 302°
2026-05-07 09:24 61.25413 13.45587 36082 ft 440 kts 302°
2026-05-07 09:24 61.28989 13.35340 36071 ft 442 kts 302°
2026-05-07 09:25 61.32595 13.24958 36066 ft 443 kts 302°
2026-05-07 09:25 61.36193 13.14553 36064 ft 443 kts 302°
2026-05-07 09:26 61.39783 13.04124 36065 ft 443 kts 302°
2026-05-07 09:26 61.43365 12.93674 36069 ft 443 kts 302°
2026-05-07 09:27 61.46943 12.83189 36068 ft 443 kts 302°
2026-05-07 09:28 61.52289 12.67429 36067 ft 442 kts 302°
2026-05-07 09:28 61.55835 12.56914 36065 ft 441 kts 302°
2026-05-07 09:29 61.59371 12.46380 36064 ft 441 kts 302°
2026-05-07 09:29 61.62898 12.35829 36071 ft 441 kts 302°
2026-05-07 09:30 61.66416 12.25253 36068 ft 441 kts 302°
2026-05-07 09:30 61.69889 12.14601 36089 ft 441 kts 301°
2026-05-07 09:31 61.73301 12.03851 36066 ft 441 kts 301°
2026-05-07 09:31 61.76706 11.93051 36065 ft 442 kts 301°
2026-05-07 09:32 61.80085 11.82309 36069 ft 442 kts 301°